GSAT0217 (GALILEO 21) (43057 NORAD) Tracking and Keplerian Element Data

This shows tracking and keplerian element data for the satellite.

Feedback or suggestion? Click here.




ElementValue
Catalog43057
NameGSAT0217 (GALILEO 21)
Epoch Orbit2980
Epoch Day269.24182484
Epoch Year2022
RAAN258.9476
Inclination55.6834
Eccentricity0.0005262
Argument of Perigee288.4867
Mean Anonmoly71.4416
Mean Motion1.7047404
Decay Rate3.2E-07
L11 43057U 17079C 22269.24182484 .00000032 00000+0 00000+0 0 9990
L22 43057 55.6834 258.9476 0005262 288.4867 71.4416 1.70474040 29800

Live tracking and technical data element details for GSAT0217 (GALILEO 21) (NORAD 43057). GSAT0217 (GALILEO 21) can be tracked NOW for your location showing map with azimuth and elevation plus other details from your city location.

Track the satellite on the map from your city or location and see movement details for azimuth, elevation, latitude, longitude, range, height, and movement on the map or in text.







IsCatalogInMostPopularTable: catalog: 43057, numindb: 672
Update: records affected: 1



GetName: 43057 GSAT0217 (GALILEO 21)

Hit Count: updated at: Fri, 30 Sep 2022 03:33:01 GMT